Location: Valencia
(39.4670°N, 0.3670°W)
Time: 18:18:27
(UTC+02:00)

ISS - Pass Details

Date: 14 August 2017
Orbit: 401 x 408 km, 51.6° (Epoch: 19 August)

Event Time Altitude Azimuth Distance (km) Brightness Sun altitude
Rises 21:51:32 0° 294° (WNW) 2,313 2.3 -10.2°
Reaches altitude 10° 21:54:02 10° 274° (W) 1,450 0.1 -10.7°
Maximum altitude 21:56:20 18° 229° (SW) 1,055 -1.5 -11.0°
Drops below altitude 10° 21:58:38 10° 183° (S) 1,442 -1.3 -11.4°
Enters shadow 21:59:30 - 174° (S) 1,716 -1.0 -11.6°
